Year,Month,Day,Hour,Minute,Value (Times are PST for temperature in C)
2011,09,20,00,00,7.50
2011,09,20,00,01,7.50
2011,09,20,00,02,7.50
2011,09,20,00,03,7.50
2011,09,20,00,04,7.40
2011,09,20,00,05,7.40
2011,09,20,00,06,7.40
2011,09,20,00,07,7.40
2011,09,20,00,08,7.30
2011,09,20,00,09,7.30
2011,09,20,00,10,7.30
2011,09,20,00,11,7.30
2011,09,20,00,12,7.30
2011,09,20,00,13,7.20
2011,09,20,00,14,7.20
2011,09,20,00,15,7.20
2011,09,20,00,16,7.20
2011,09,20,00,17,7.20
2011,09,20,00,18,7.20
2011,09,20,00,19,7.20
2011,09,20,00,20,7.20
2011,09,20,00,21,7.20
2011,09,20,00,22,7.20
2011,09,20,00,23,7.20
2011,09,20,00,24,7.20
2011,09,20,00,25,7.20
2011,09,20,00,26,7.20
2011,09,20,00,27,7.20
2011,09,20,00,28,7.20
2011,09,20,00,29,7.20
2011,09,20,00,30,7.20
2011,09,20,00,31,7.20
2011,09,20,00,32,7.20
2011,09,20,00,33,7.20
2011,09,20,00,34,7.10
2011,09,20,00,35,7.10
2011,09,20,00,36,7.10
2011,09,20,00,37,7.00
2011,09,20,00,38,7.00
2011,09,20,00,39,7.00
2011,09,20,00,40,7.00
2011,09,20,00,41,7.10
2011,09,20,00,42,7.10
2011,09,20,00,43,7.00
2011,09,20,00,44,7.00
2011,09,20,00,45,7.00
2011,09,20,00,46,7.00
2011,09,20,00,47,7.00
2011,09,20,00,48,7.00
2011,09,20,00,49,7.00
2011,09,20,00,50,7.00
2011,09,20,00,51,7.10
2011,09,20,00,52,7.10
2011,09,20,00,53,7.10
2011,09,20,00,54,7.10
2011,09,20,00,55,7.10
2011,09,20,00,56,7.10
2011,09,20,00,57,7.10
2011,09,20,00,58,7.10
2011,09,20,00,59,7.10
2011,09,20,01,00,7.10
2011,09,20,01,01,7.10
2011,09,20,01,02,7.00
2011,09,20,01,03,7.00
2011,09,20,01,04,7.00
2011,09,20,01,05,6.90
2011,09,20,01,06,6.90
2011,09,20,01,07,6.90
2011,09,20,01,08,6.90
2011,09,20,01,09,6.90
2011,09,20,01,10,6.90
2011,09,20,01,11,6.90
2011,09,20,01,12,6.90
2011,09,20,01,13,6.90
2011,09,20,01,14,6.80
2011,09,20,01,15,6.80
2011,09,20,01,16,6.80
2011,09,20,01,17,6.80
2011,09,20,01,18,6.80
2011,09,20,01,19,6.90
2011,09,20,01,20,6.80
2011,09,20,01,21,6.80
2011,09,20,01,22,6.80
2011,09,20,01,23,6.80
2011,09,20,01,24,6.80
2011,09,20,01,25,6.80
2011,09,20,01,26,6.80
2011,09,20,01,27,6.80
2011,09,20,01,28,6.80
2011,09,20,01,29,6.80
2011,09,20,01,30,6.80
2011,09,20,01,31,6.80
2011,09,20,01,32,6.70
2011,09,20,01,33,6.70
2011,09,20,01,34,6.70
2011,09,20,01,35,6.70
2011,09,20,01,36,6.70
2011,09,20,01,37,6.70
2011,09,20,01,38,6.70
2011,09,20,01,39,6.70
2011,09,20,01,40,6.70
2011,09,20,01,41,6.70
2011,09,20,01,42,6.60
2011,09,20,01,43,6.60
2011,09,20,01,44,6.60
2011,09,20,01,45,6.60
2011,09,20,01,46,6.60
2011,09,20,01,47,6.60
2011,09,20,01,48,6.60
2011,09,20,01,49,6.60
2011,09,20,01,50,6.60
2011,09,20,01,51,6.60
2011,09,20,01,52,6.60
2011,09,20,01,53,6.60
2011,09,20,01,54,6.50
2011,09,20,01,55,6.50
2011,09,20,01,56,6.50
2011,09,20,01,57,6.50
2011,09,20,01,58,6.50
2011,09,20,01,59,6.40
2011,09,20,02,00,6.40
2011,09,20,02,01,6.40
2011,09,20,02,02,6.40
2011,09,20,02,03,6.40
2011,09,20,02,04,6.40
2011,09,20,02,05,6.40
2011,09,20,02,06,6.40
2011,09,20,02,07,6.30
2011,09,20,02,08,6.30
2011,09,20,02,09,6.30
2011,09,20,02,10,6.30
2011,09,20,02,11,6.30
2011,09,20,02,12,6.30
2011,09,20,02,13,6.30
2011,09,20,02,14,6.30
2011,09,20,02,15,6.30
2011,09,20,02,16,6.30
2011,09,20,02,17,6.30
2011,09,20,02,18,6.30
2011,09,20,02,19,6.30
2011,09,20,02,20,6.30
2011,09,20,02,21,6.20
2011,09,20,02,22,6.20
2011,09,20,02,23,6.20
2011,09,20,02,24,6.20
2011,09,20,02,25,6.20
2011,09,20,02,26,6.20
2011,09,20,02,27,6.20
2011,09,20,02,28,6.20
2011,09,20,02,29,6.20
2011,09,20,02,30,6.10
2011,09,20,02,31,6.10
2011,09,20,02,32,6.10
2011,09,20,02,33,6.10
2011,09,20,02,34,6.10
2011,09,20,02,35,6.10
2011,09,20,02,36,6.10
2011,09,20,02,37,6.10
2011,09,20,02,38,6.00
2011,09,20,02,39,6.00
2011,09,20,02,40,6.00
2011,09,20,02,41,6.00
2011,09,20,02,42,6.00
2011,09,20,02,43,6.00
2011,09,20,02,44,6.00
2011,09,20,02,45,6.00
2011,09,20,02,46,5.90
2011,09,20,02,47,5.90
2011,09,20,02,48,5.90
2011,09,20,02,49,5.90
2011,09,20,02,50,5.90
2011,09,20,02,51,5.90
2011,09,20,02,52,5.90
2011,09,20,02,53,5.90
2011,09,20,02,54,5.90
2011,09,20,02,55,5.90
2011,09,20,02,56,5.90
2011,09,20,02,57,5.90
2011,09,20,02,58,5.90
2011,09,20,02,59,5.90
2011,09,20,03,00,5.90
2011,09,20,03,01,5.90
2011,09,20,03,02,5.90
2011,09,20,03,03,5.90
2011,09,20,03,06,5.90
2011,09,20,03,07,5.90
2011,09,20,03,08,5.90
2011,09,20,03,09,5.90
2011,09,20,03,10,5.90
2011,09,20,03,11,5.80
2011,09,20,03,12,5.80
2011,09,20,03,13,5.80
2011,09,20,03,14,5.80
2011,09,20,03,15,5.80
2011,09,20,03,16,5.80
2011,09,20,03,17,5.80
2011,09,20,03,18,5.80
2011,09,20,03,19,5.80
2011,09,20,03,20,5.80
2011,09,20,03,21,5.80
2011,09,20,03,22,5.80
2011,09,20,03,23,5.80
2011,09,20,03,24,5.80
2011,09,20,03,25,5.80
2011,09,20,03,26,5.80
2011,09,20,03,27,5.80
2011,09,20,03,28,5.80
2011,09,20,03,29,5.80
2011,09,20,03,30,5.80
2011,09,20,03,31,5.80
2011,09,20,03,32,5.80
2011,09,20,03,33,5.80
2011,09,20,03,34,5.80
2011,09,20,03,35,5.80
2011,09,20,03,36,5.80
2011,09,20,03,37,5.80
2011,09,20,03,38,5.80
2011,09,20,03,39,5.80
2011,09,20,03,40,5.70
2011,09,20,03,41,5.70
2011,09,20,03,42,5.70
2011,09,20,03,43,5.70
2011,09,20,03,44,5.70
2011,09,20,03,45,5.70
2011,09,20,03,46,5.70
2011,09,20,03,47,5.70
2011,09,20,03,48,5.70
2011,09,20,03,49,5.70
2011,09,20,03,50,5.70
2011,09,20,03,51,5.70
2011,09,20,03,52,5.70
2011,09,20,03,53,5.70
2011,09,20,03,54,5.70
2011,09,20,03,55,5.70
2011,09,20,03,56,5.70
2011,09,20,03,57,5.70
2011,09,20,03,58,5.70
2011,09,20,03,59,5.70
2011,09,20,04,00,5.70
2011,09,20,04,01,5.70
2011,09,20,04,02,5.70
2011,09,20,04,03,5.70
2011,09,20,04,04,5.70
2011,09,20,04,05,5.70
2011,09,20,04,06,5.70
2011,09,20,04,07,5.70
2011,09,20,04,08,5.70
2011,09,20,04,09,5.70
2011,09,20,04,10,5.70
2011,09,20,04,11,5.70
2011,09,20,04,12,5.70
2011,09,20,04,13,5.70
2011,09,20,04,14,5.70
2011,09,20,04,15,5.70
2011,09,20,04,16,5.70
2011,09,20,04,17,5.70
2011,09,20,04,18,5.60
2011,09,20,04,19,5.60
2011,09,20,04,20,5.60
2011,09,20,04,21,5.60
2011,09,20,04,22,5.60
2011,09,20,04,23,5.60
2011,09,20,04,24,5.60
2011,09,20,04,25,5.60
2011,09,20,04,26,5.60
2011,09,20,04,27,5.60
2011,09,20,04,28,5.60
2011,09,20,04,29,5.60
2011,09,20,04,30,5.60
2011,09,20,04,31,5.60
2011,09,20,04,32,5.60
2011,09,20,04,33,5.60
2011,09,20,04,34,5.60
2011,09,20,04,35,5.60
2011,09,20,04,36,5.60
2011,09,20,04,37,5.60
2011,09,20,04,38,5.60
2011,09,20,04,39,5.60
2011,09,20,04,40,5.60
2011,09,20,04,41,5.60
2011,09,20,04,42,5.60
2011,09,20,04,43,5.50
2011,09,20,04,44,5.50
2011,09,20,04,45,5.50
2011,09,20,04,46,5.50
2011,09,20,04,47,5.40
2011,09,20,04,48,5.40
2011,09,20,04,49,5.40
2011,09,20,04,50,5.40
2011,09,20,04,51,5.40
2011,09,20,04,52,5.40
2011,09,20,04,53,5.40
2011,09,20,04,54,5.40
2011,09,20,04,55,5.40
2011,09,20,04,56,5.40
2011,09,20,04,57,5.40
2011,09,20,04,58,5.40
2011,09,20,04,59,5.40
2011,09,20,05,00,5.40
2011,09,20,05,01,5.40
2011,09,20,05,02,5.40
2011,09,20,05,03,5.40
2011,09,20,05,04,5.40
2011,09,20,05,05,5.40
2011,09,20,05,06,5.40
2011,09,20,05,07,5.40
2011,09,20,05,08,5.40
2011,09,20,05,09,5.40
2011,09,20,05,10,5.40
2011,09,20,05,11,5.40
2011,09,20,05,12,5.40
2011,09,20,05,13,5.40
2011,09,20,05,14,5.40
2011,09,20,05,15,5.40
2011,09,20,05,16,5.40
2011,09,20,05,17,5.40
2011,09,20,05,18,5.40
2011,09,20,05,19,5.40
2011,09,20,05,20,5.40
2011,09,20,05,21,5.40
2011,09,20,05,22,5.40
2011,09,20,05,23,5.50
2011,09,20,05,24,5.50
2011,09,20,05,25,5.50
2011,09,20,05,26,5.50
2011,09,20,05,27,5.40
2011,09,20,05,28,5.40
2011,09,20,05,29,5.40
2011,09,20,05,30,5.40
2011,09,20,05,31,5.50
2011,09,20,05,32,5.50
2011,09,20,05,33,5.50
2011,09,20,05,34,5.50
2011,09,20,05,35,5.50
2011,09,20,05,36,5.40
2011,09,20,05,37,5.40
2011,09,20,05,38,5.40
2011,09,20,05,39,5.40
2011,09,20,05,40,5.40
2011,09,20,05,41,5.40
2011,09,20,05,42,5.40
2011,09,20,05,43,5.40
2011,09,20,05,44,5.40
2011,09,20,05,45,5.40
2011,09,20,05,46,5.40
2011,09,20,05,47,5.50
2011,09,20,05,48,5.50
2011,09,20,05,49,5.60
2011,09,20,05,50,5.60
2011,09,20,05,51,5.60
2011,09,20,05,52,5.60
2011,09,20,05,53,5.60
2011,09,20,05,54,5.60
2011,09,20,05,55,5.50
2011,09,20,05,56,5.50
2011,09,20,05,57,5.50
2011,09,20,05,58,5.40
2011,09,20,05,59,5.40
2011,09,20,06,00,5.40
2011,09,20,06,01,5.40
2011,09,20,06,02,5.40
2011,09,20,06,03,5.30
2011,09,20,06,04,5.40
2011,09,20,06,05,5.40
2011,09,20,06,06,5.40
2011,09,20,06,07,5.40
2011,09,20,06,08,5.40
2011,09,20,06,09,5.40
2011,09,20,06,10,5.40
2011,09,20,06,11,5.40
2011,09,20,06,12,5.50
2011,09,20,06,13,5.50
2011,09,20,06,14,5.40
2011,09,20,06,15,5.40
2011,09,20,06,16,5.40
2011,09,20,06,17,5.40
2011,09,20,06,18,5.40
2011,09,20,06,19,5.40
2011,09,20,06,20,5.40
2011,09,20,06,21,5.40
2011,09,20,06,22,5.40
2011,09,20,06,23,5.40
2011,09,20,06,24,5.40
2011,09,20,06,25,5.40
2011,09,20,06,26,5.40
2011,09,20,06,27,5.40
2011,09,20,06,28,5.40
2011,09,20,06,29,5.40
2011,09,20,06,30,5.30
2011,09,20,06,31,5.30
2011,09,20,06,32,5.30
2011,09,20,06,33,5.30
2011,09,20,06,34,5.30
2011,09,20,06,35,5.30
2011,09,20,06,36,5.30
2011,09,20,06,37,5.20
2011,09,20,06,38,5.20
2011,09,20,06,39,5.20
2011,09,20,06,40,5.20
2011,09,20,06,41,5.20
2011,09,20,06,42,5.20
2011,09,20,06,43,5.20
2011,09,20,06,44,5.20
2011,09,20,06,45,5.10
2011,09,20,06,46,5.10
2011,09,20,06,47,5.10
2011,09,20,06,48,5.10
2011,09,20,06,49,5.10
2011,09,20,06,50,5.10
2011,09,20,06,51,5.10
2011,09,20,06,52,5.10
2011,09,20,06,53,5.10
2011,09,20,06,54,5.10
2011,09,20,06,55,5.10
2011,09,20,06,56,5.10
2011,09,20,06,57,5.10
2011,09,20,06,58,5.10
2011,09,20,06,59,5.10
2011,09,20,07,00,5.10
2011,09,20,07,01,5.10
2011,09,20,07,02,5.20
2011,09,20,07,03,5.20
2011,09,20,07,04,5.20
2011,09,20,07,05,5.20
2011,09,20,07,06,5.20
2011,09,20,07,07,5.20
2011,09,20,07,08,5.20
2011,09,20,07,09,5.20
2011,09,20,07,10,5.20
2011,09,20,07,11,5.20
2011,09,20,07,12,5.20
2011,09,20,07,13,5.20
2011,09,20,07,14,5.20
2011,09,20,07,15,5.20
2011,09,20,07,16,5.20
2011,09,20,07,17,5.20
2011,09,20,07,18,5.20
2011,09,20,07,19,5.20
2011,09,20,07,20,5.20
2011,09,20,07,21,5.30
2011,09,20,07,22,5.30
2011,09,20,07,23,5.30
2011,09,20,07,24,5.30
2011,09,20,07,25,5.30
2011,09,20,07,26,5.30
2011,09,20,07,27,5.30
2011,09,20,07,28,5.30
2011,09,20,07,29,5.30
2011,09,20,07,30,5.30
2011,09,20,07,31,5.30
2011,09,20,07,32,5.30
2011,09,20,07,33,5.30
2011,09,20,07,34,5.30
2011,09,20,07,35,5.30
2011,09,20,07,36,5.30
2011,09,20,07,37,5.40
2011,09,20,07,38,5.40
2011,09,20,07,39,5.40
2011,09,20,07,40,5.40
2011,09,20,07,41,5.40
2011,09,20,07,42,5.40
2011,09,20,07,43,5.40
2011,09,20,07,44,5.50
2011,09,20,07,45,5.50
2011,09,20,07,46,5.60
2011,09,20,07,47,5.60
2011,09,20,07,48,5.70
2011,09,20,07,49,5.70
2011,09,20,07,50,5.70
2011,09,20,07,51,5.80
2011,09,20,07,52,5.80
2011,09,20,07,53,5.90
2011,09,20,07,54,5.90
2011,09,20,07,55,5.90
2011,09,20,07,56,6.00
2011,09,20,07,57,6.00
2011,09,20,07,58,6.10
2011,09,20,07,59,6.10
2011,09,20,08,00,6.20
2011,09,20,08,01,6.20
2011,09,20,08,02,6.30
2011,09,20,08,03,6.30
2011,09,20,08,04,6.40
2011,09,20,08,05,6.40
2011,09,20,08,06,6.50
2011,09,20,08,07,6.60
2011,09,20,08,08,6.60
2011,09,20,08,09,6.70
2011,09,20,08,10,6.70
2011,09,20,08,11,6.80
2011,09,20,08,12,6.80
2011,09,20,08,13,6.90
2011,09,20,08,14,7.00
2011,09,20,08,15,7.00
2011,09,20,08,16,7.10
2011,09,20,08,17,7.10
2011,09,20,08,18,7.20
2011,09,20,08,19,7.20
2011,09,20,08,20,7.20
2011,09,20,08,21,7.30
2011,09,20,08,22,7.30
2011,09,20,08,23,7.40
2011,09,20,08,24,7.40
2011,09,20,08,25,7.50
2011,09,20,08,26,7.60
2011,09,20,08,27,7.60
2011,09,20,08,28,7.70
2011,09,20,08,29,7.70
2011,09,20,08,30,7.80
2011,09,20,08,31,7.80
2011,09,20,08,32,7.80
2011,09,20,08,33,7.90
2011,09,20,08,34,7.90
2011,09,20,08,35,8.00
2011,09,20,08,36,8.00
2011,09,20,08,37,8.10
2011,09,20,08,38,8.20
2011,09,20,08,39,8.20
2011,09,20,08,40,8.30
2011,09,20,08,41,8.30
2011,09,20,08,42,8.40
2011,09,20,08,43,8.50
2011,09,20,08,44,8.60
2011,09,20,08,45,8.60
2011,09,20,08,46,8.70
2011,09,20,08,47,8.80
2011,09,20,08,48,8.80
2011,09,20,08,49,8.90
2011,09,20,08,50,8.90
2011,09,20,08,51,9.00
2011,09,20,08,52,9.00
2011,09,20,08,53,9.10
2011,09,20,08,54,9.10
2011,09,20,08,55,9.20
2011,09,20,08,56,9.30
2011,09,20,08,57,9.30
2011,09,20,08,58,9.50
2011,09,20,08,59,9.60
2011,09,20,09,00,9.80
2011,09,20,09,01,9.90
2011,09,20,09,02,10.10
2011,09,20,09,03,10.30
2011,09,20,09,04,10.50
2011,09,20,09,05,10.70
2011,09,20,09,06,10.80
2011,09,20,09,07,10.90
2011,09,20,09,08,11.00
2011,09,20,09,09,11.10
2011,09,20,09,10,11.20
2011,09,20,09,11,11.30
2011,09,20,09,12,11.50
2011,09,20,09,13,11.60
2011,09,20,09,14,11.80
2011,09,20,09,15,12.00
2011,09,20,09,16,12.20
2011,09,20,09,17,12.30
2011,09,20,09,18,12.40
2011,09,20,09,19,12.60
2011,09,20,09,20,12.70
2011,09,20,09,21,12.90
2011,09,20,09,22,13.00
2011,09,20,09,23,13.10
2011,09,20,09,24,13.20
2011,09,20,09,25,13.30
2011,09,20,09,26,13.40
2011,09,20,09,27,13.50
2011,09,20,09,28,13.50
2011,09,20,09,29,13.60
2011,09,20,09,30,13.70
2011,09,20,09,31,13.70
2011,09,20,09,32,13.80
2011,09,20,09,33,13.80
2011,09,20,09,34,13.80
2011,09,20,09,35,13.90
2011,09,20,09,36,13.90
2011,09,20,09,37,14.00
2011,09,20,09,38,14.00
2011,09,20,09,39,14.10
2011,09,20,09,40,14.10
2011,09,20,09,41,14.20
2011,09,20,09,42,14.20
2011,09,20,09,43,14.30
2011,09,20,09,44,14.40
2011,09,20,09,45,14.50
2011,09,20,09,46,14.60
2011,09,20,09,47,14.70
2011,09,20,09,48,14.90
2011,09,20,09,49,15.00
2011,09,20,09,50,15.00
2011,09,20,09,51,15.00
2011,09,20,09,52,15.00
2011,09,20,09,53,15.00
2011,09,20,09,54,15.00
2011,09,20,09,55,15.00
2011,09,20,09,56,14.90
2011,09,20,09,57,14.90
2011,09,20,09,58,14.90
2011,09,20,09,59,14.90
2011,09,20,10,00,14.90
2011,09,20,10,01,14.90
2011,09,20,10,02,14.90
2011,09,20,10,03,15.00
2011,09,20,10,04,15.00
2011,09,20,10,05,15.00
2011,09,20,10,06,15.00
2011,09,20,10,07,15.00
2011,09,20,10,08,15.00
2011,09,20,10,09,15.10
2011,09,20,10,10,15.20
2011,09,20,10,11,15.30
2011,09,20,10,12,15.30
2011,09,20,10,13,15.40
2011,09,20,10,14,15.50
2011,09,20,10,15,15.60
2011,09,20,10,16,15.60
2011,09,20,10,17,15.60
2011,09,20,10,18,15.60
2011,09,20,10,19,15.70
2011,09,20,10,20,15.70
2011,09,20,10,21,15.80
2011,09,20,10,22,15.80
2011,09,20,10,23,15.80
2011,09,20,10,24,15.90
2011,09,20,10,25,15.90
2011,09,20,10,26,16.00
2011,09,20,10,27,16.10
2011,09,20,10,28,16.20
2011,09,20,10,29,16.30
2011,09,20,10,30,16.30
2011,09,20,10,31,16.40
2011,09,20,10,32,16.50
2011,09,20,10,33,16.50
2011,09,20,10,34,16.60
2011,09,20,10,35,16.60
2011,09,20,10,36,16.60
2011,09,20,10,37,16.70
2011,09,20,10,38,16.70
2011,09,20,10,39,16.80
2011,09,20,10,40,16.80
2011,09,20,10,41,16.80
2011,09,20,10,42,16.80
2011,09,20,10,43,16.80
2011,09,20,10,44,16.80
2011,09,20,10,45,16.80
2011,09,20,10,46,16.90
2011,09,20,10,47,16.90
2011,09,20,10,48,16.90
2011,09,20,10,49,16.80
2011,09,20,10,50,16.80
2011,09,20,10,51,16.80
2011,09,20,10,52,16.80
2011,09,20,10,53,16.80
2011,09,20,10,54,16.80
2011,09,20,10,55,16.80
2011,09,20,10,56,16.90
2011,09,20,10,57,16.90
2011,09,20,10,58,16.90
2011,09,20,10,59,16.90
2011,09,20,11,00,16.90
2011,09,20,11,01,16.90
2011,09,20,11,02,16.90
2011,09,20,11,03,16.90
2011,09,20,11,04,16.90
2011,09,20,11,05,16.90
2011,09,20,11,06,16.90
2011,09,20,11,07,16.90
2011,09,20,11,08,17.00
2011,09,20,11,09,17.10
2011,09,20,11,10,17.10
2011,09,20,11,11,17.20
2011,09,20,11,12,17.20
2011,09,20,11,13,17.30
2011,09,20,11,14,17.30
2011,09,20,11,15,17.30
2011,09,20,11,16,17.30
2011,09,20,11,17,17.30
2011,09,20,11,18,17.30
2011,09,20,11,19,17.30
2011,09,20,11,20,17.40
2011,09,20,11,21,17.40
2011,09,20,11,22,17.40
2011,09,20,11,23,17.30
2011,09,20,11,24,17.30
2011,09,20,11,25,17.30
2011,09,20,11,26,17.40
2011,09,20,11,27,17.50
2011,09,20,11,28,17.50
2011,09,20,11,29,17.40
2011,09,20,11,30,17.40
2011,09,20,11,31,17.40
2011,09,20,11,32,17.50
2011,09,20,11,33,17.60
2011,09,20,11,34,17.60
2011,09,20,11,35,17.70
2011,09,20,11,36,17.80
2011,09,20,11,37,17.80
2011,09,20,11,38,17.80
2011,09,20,11,39,17.70
2011,09,20,11,40,17.70
2011,09,20,11,41,17.70
2011,09,20,11,42,17.70
2011,09,20,11,43,17.70
2011,09,20,11,44,17.60
2011,09,20,11,45,17.60
2011,09,20,11,46,17.60
2011,09,20,11,47,17.60
2011,09,20,11,48,17.60
2011,09,20,11,49,17.60
2011,09,20,11,50,17.70
2011,09,20,11,51,17.80
2011,09,20,11,52,17.80
2011,09,20,11,53,17.80
2011,09,20,11,54,17.90
2011,09,20,11,55,17.90
2011,09,20,11,56,17.90
2011,09,20,11,57,17.90
2011,09,20,11,58,17.80
2011,09,20,11,59,17.90
2011,09,20,12,00,17.90
2011,09,20,12,01,17.90
2011,09,20,12,02,17.90
2011,09,20,12,03,17.80
2011,09,20,12,04,17.80
2011,09,20,12,05,17.80
2011,09,20,12,06,17.80
2011,09,20,12,07,17.90
2011,09,20,12,08,17.90
2011,09,20,12,09,17.90
2011,09,20,12,10,17.80
2011,09,20,12,11,17.80
2011,09,20,12,12,17.80
2011,09,20,12,13,17.80
2011,09,20,12,14,17.80
2011,09,20,12,15,17.80
2011,09,20,12,16,17.90
2011,09,20,12,17,17.90
2011,09,20,12,18,18.00
2011,09,20,12,19,18.00
2011,09,20,12,20,18.10
2011,09,20,12,21,18.20
2011,09,20,12,22,18.20
2011,09,20,12,23,18.20
2011,09,20,12,24,18.20
2011,09,20,12,25,18.10
2011,09,20,12,26,18.10
2011,09,20,12,27,18.10
2011,09,20,12,28,18.00
2011,09,20,12,29,18.00
2011,09,20,12,30,18.00
2011,09,20,12,31,18.00
2011,09,20,12,32,18.10
2011,09,20,12,33,18.20
2011,09,20,12,34,18.20
2011,09,20,12,35,18.30
2011,09,20,12,36,18.30
2011,09,20,12,37,18.30
2011,09,20,12,38,18.40
2011,09,20,12,39,18.50
2011,09,20,12,40,18.50
2011,09,20,12,41,18.50
2011,09,20,12,42,18.50
2011,09,20,12,43,18.60
2011,09,20,12,44,18.70
2011,09,20,12,45,18.60
2011,09,20,12,46,18.50
2011,09,20,12,47,18.50
2011,09,20,12,48,18.50
2011,09,20,12,49,18.50
2011,09,20,12,50,18.60
2011,09,20,12,51,18.60
2011,09,20,12,52,18.70
2011,09,20,12,53,18.70
2011,09,20,12,54,18.70
2011,09,20,12,55,18.70
2011,09,20,12,56,18.80
2011,09,20,12,57,18.90
2011,09,20,12,58,19.00
2011,09,20,12,59,19.10
2011,09,20,13,00,19.20
2011,09,20,13,01,19.20
2011,09,20,13,02,19.30
2011,09,20,13,03,19.30
2011,09,20,13,04,19.30
2011,09,20,13,05,19.40
2011,09,20,13,06,19.40
2011,09,20,13,07,19.40
2011,09,20,13,08,19.30
2011,09,20,13,09,19.30
2011,09,20,13,10,19.40
2011,09,20,13,11,19.40
2011,09,20,13,12,19.50
2011,09,20,13,13,19.50
2011,09,20,13,14,19.50
2011,09,20,13,15,19.50
2011,09,20,13,16,19.50
2011,09,20,13,17,19.60
2011,09,20,13,18,19.60
2011,09,20,13,19,19.70
2011,09,20,13,20,19.80
2011,09,20,13,21,19.80
2011,09,20,13,22,19.90
2011,09,20,13,23,19.90
2011,09,20,13,24,19.90
2011,09,20,13,25,19.80
2011,09,20,13,26,19.70
2011,09,20,13,27,19.80
2011,09,20,13,28,19.80
2011,09,20,13,29,19.80
2011,09,20,13,30,19.80
2011,09,20,13,31,19.80
2011,09,20,13,32,19.80
2011,09,20,13,33,19.70
2011,09,20,13,34,19.70
2011,09,20,13,35,19.70
2011,09,20,13,36,19.70
2011,09,20,13,37,19.70
2011,09,20,13,38,19.60
2011,09,20,13,39,19.50
2011,09,20,13,40,19.50
2011,09,20,13,41,19.50
2011,09,20,13,42,19.40
2011,09,20,13,43,19.50
2011,09,20,13,44,19.50
2011,09,20,13,45,19.60
2011,09,20,13,46,19.60
2011,09,20,13,47,19.60
2011,09,20,13,48,19.60
2011,09,20,13,49,19.60
2011,09,20,13,50,19.60
2011,09,20,13,51,19.70
2011,09,20,13,52,19.70
2011,09,20,13,53,19.70
2011,09,20,13,54,19.70
2011,09,20,13,55,19.80
2011,09,20,13,56,19.70
2011,09,20,13,57,19.70
2011,09,20,13,58,19.60
2011,09,20,13,59,19.50
2011,09,20,14,00,19.50
2011,09,20,14,01,19.40
2011,09,20,14,02,19.50
2011,09,20,14,03,19.50
2011,09,20,14,04,19.50
2011,09,20,14,05,19.50
2011,09,20,14,06,19.60
2011,09,20,14,07,19.60
2011,09,20,14,08,19.50
2011,09,20,14,09,19.50
2011,09,20,14,10,19.40
2011,09,20,14,11,19.40
2011,09,20,14,12,19.30
2011,09,20,14,13,19.30
2011,09,20,14,14,19.30
2011,09,20,14,15,19.30
2011,09,20,14,16,19.30
2011,09,20,14,17,19.20
2011,09,20,14,18,19.20
2011,09,20,14,19,19.20
2011,09,20,14,20,19.20
2011,09,20,14,21,19.10
2011,09,20,14,22,19.10
2011,09,20,14,23,19.10
2011,09,20,14,24,19.10
2011,09,20,14,25,19.10
2011,09,20,14,26,19.10
2011,09,20,14,27,19.10
2011,09,20,14,28,19.10
2011,09,20,14,29,19.10
2011,09,20,14,30,19.20
2011,09,20,14,31,19.20
2011,09,20,14,32,19.20
2011,09,20,14,33,19.20
2011,09,20,14,34,19.30
2011,09,20,14,35,19.30
2011,09,20,14,36,19.30
2011,09,20,14,37,19.30
2011,09,20,14,38,19.20
2011,09,20,14,39,19.20
2011,09,20,14,40,19.10
2011,09,20,14,41,19.10
2011,09,20,14,42,19.10
2011,09,20,14,43,19.20
2011,09,20,14,44,19.30
2011,09,20,14,45,19.30
2011,09,20,14,46,19.30
2011,09,20,14,47,19.40
2011,09,20,14,48,19.40
2011,09,20,14,49,19.40
2011,09,20,14,50,19.40
2011,09,20,14,51,19.40
2011,09,20,14,52,19.40
2011,09,20,14,53,19.30
2011,09,20,14,54,19.30
2011,09,20,14,55,19.30
2011,09,20,14,56,19.30
2011,09,20,14,57,19.30
2011,09,20,14,58,19.20
2011,09,20,14,59,19.30
2011,09,20,15,00,19.30
2011,09,20,15,01,19.30
2011,09,20,15,02,19.40
2011,09,20,15,03,19.40
2011,09,20,15,04,19.40
2011,09,20,15,05,19.40
2011,09,20,15,06,19.40
2011,09,20,15,07,19.40
2011,09,20,15,08,19.40
2011,09,20,15,09,19.40
2011,09,20,15,10,19.40
2011,09,20,15,11,19.40
2011,09,20,15,12,19.30
2011,09,20,15,13,19.20
2011,09,20,15,14,19.20
2011,09,20,15,15,19.10
2011,09,20,15,16,19.10
2011,09,20,15,17,19.00
2011,09,20,15,18,19.00
2011,09,20,15,19,18.90
2011,09,20,15,20,18.90
2011,09,20,15,21,18.80
2011,09,20,15,22,18.80
2011,09,20,15,23,18.80
2011,09,20,15,24,18.80
2011,09,20,15,25,18.90
2011,09,20,15,26,18.90
2011,09,20,15,27,19.00
2011,09,20,15,28,19.00
2011,09,20,15,29,19.10
2011,09,20,15,30,19.20
2011,09,20,15,31,19.20
2011,09,20,15,32,19.30
2011,09,20,15,33,19.40
2011,09,20,15,34,19.40
2011,09,20,15,35,19.50
2011,09,20,15,36,19.50
2011,09,20,15,37,19.50
2011,09,20,15,38,19.60
2011,09,20,15,39,19.70
2011,09,20,15,40,19.70
2011,09,20,15,41,19.70
2011,09,20,15,42,19.60
2011,09,20,15,43,19.60
2011,09,20,15,44,19.60
2011,09,20,15,45,19.60
2011,09,20,15,46,19.60
2011,09,20,15,47,19.50
2011,09,20,15,48,19.50
2011,09,20,15,49,19.40
2011,09,20,15,50,19.30
2011,09,20,15,51,19.30
2011,09,20,15,52,19.20
2011,09,20,15,53,19.10
2011,09,20,15,54,19.10
2011,09,20,15,55,19.00
2011,09,20,15,56,19.00
2011,09,20,15,57,18.90
2011,09,20,15,58,18.90
2011,09,20,15,59,18.90
2011,09,20,16,00,18.90
2011,09,20,16,01,18.80
2011,09,20,16,02,18.80
2011,09,20,16,03,18.80
2011,09,20,16,04,18.80
2011,09,20,16,05,18.80
2011,09,20,16,06,18.70
2011,09,20,16,07,18.70
2011,09,20,16,08,18.60
2011,09,20,16,09,18.60
2011,09,20,16,10,18.60
2011,09,20,16,11,18.60
2011,09,20,16,12,18.60
2011,09,20,16,13,18.60
2011,09,20,16,14,18.70
2011,09,20,16,15,18.70
2011,09,20,16,16,18.70
2011,09,20,16,17,18.70
2011,09,20,16,18,18.70
2011,09,20,16,19,18.70
2011,09,20,16,20,18.70
2011,09,20,16,21,18.60
2011,09,20,16,22,18.60
2011,09,20,16,23,18.60
2011,09,20,16,24,18.50
2011,09,20,16,25,18.50
2011,09,20,16,26,18.50
2011,09,20,16,27,18.40
2011,09,20,16,28,18.40
2011,09,20,16,29,18.30
2011,09,20,16,30,18.30
2011,09,20,16,31,18.20
2011,09,20,16,32,18.20
2011,09,20,16,33,18.20
2011,09,20,16,34,18.10
2011,09,20,16,35,18.10
2011,09,20,16,36,18.10
2011,09,20,16,37,18.10
2011,09,20,16,38,18.10
2011,09,20,16,39,18.00
2011,09,20,16,40,18.00
2011,09,20,16,41,18.00
2011,09,20,16,42,18.00
2011,09,20,16,43,18.00
2011,09,20,16,44,18.00
2011,09,20,16,45,17.90
2011,09,20,16,46,17.90
2011,09,20,16,47,17.90
2011,09,20,16,48,17.90
2011,09,20,16,49,17.90
2011,09,20,16,50,17.90
2011,09,20,16,51,17.80
2011,09,20,16,52,17.80
2011,09,20,16,53,17.80
2011,09,20,16,54,17.80
2011,09,20,16,55,17.80
2011,09,20,16,56,17.80
2011,09,20,16,57,17.80
2011,09,20,16,58,17.80
2011,09,20,16,59,17.80
2011,09,20,17,00,17.80
2011,09,20,17,01,17.80
2011,09,20,17,02,17.80
2011,09,20,17,03,17.80
2011,09,20,17,04,17.80
2011,09,20,17,05,17.80
2011,09,20,17,06,17.80
2011,09,20,17,07,17.80
2011,09,20,17,08,17.80
2011,09,20,17,09,17.80
2011,09,20,17,10,17.80
2011,09,20,17,11,17.80
2011,09,20,17,12,17.90
2011,09,20,17,13,17.90
2011,09,20,17,14,17.90
2011,09,20,17,15,17.90
2011,09,20,17,16,18.00
2011,09,20,17,17,18.00
2011,09,20,17,18,18.10
2011,09,20,17,19,18.10
2011,09,20,17,20,18.10
2011,09,20,17,21,18.10
2011,09,20,17,22,18.20
2011,09,20,17,23,18.20
2011,09,20,17,24,18.20
2011,09,20,17,25,18.20
2011,09,20,17,26,18.20
2011,09,20,17,27,18.20
2011,09,20,17,28,18.30
2011,09,20,17,29,18.30
2011,09,20,17,30,18.30
2011,09,20,17,31,18.30
2011,09,20,17,32,18.30
2011,09,20,17,33,18.30
2011,09,20,17,34,18.30
2011,09,20,17,35,18.30
2011,09,20,17,36,18.30
2011,09,20,17,37,18.30
2011,09,20,17,38,18.30
2011,09,20,17,39,18.30
2011,09,20,17,40,18.30
2011,09,20,17,41,18.20
2011,09,20,17,42,18.20
2011,09,20,17,43,18.20
2011,09,20,17,44,18.20